Wind_Speed
41 42 44 46 48 49 51 52 53 54 55 56 57 58 61 63 65 67 69 70 71 72 73 74 75 76 76 76 76 77 78 81 84 87 90 93 95 98 100 103 105 107 108 110 112 113 114 115 115 116 117 118 118 119 119 120 121 121 122 123 124 125 126 127 128 129 130 131 133 134 136 137 139 140 142 143 145 146 148 149 151 152 154 155 156 157
38 38 40 41 42 43 44 45 45 46 47 48 48 49 51 52 54 57 58 59 61 62 64 65 65 66 66 67 67 68 68 70 72 74 76 79 82 84 87 89 91 93 95 97 99 100 102 103 104 106 107 108 109 110 111 112 113 115 115 116 117 119 120 121 122 123 124 125 126 128 129 130 132 133 135 136 138 140 141 143 144 146 148 149 151 153
36 37 38 38 39 40 41 41 42 43 44 44 45 45 46 47 49 51 52 52 54 55 56 58 59 59 60 61 62 63 64 66 67 69 71 73 75 77 79 81 83 84 87 89 90 92 94 95 97 98 100 102 103 105 106 107 109 110 112 113 114 115 117 118 119 120 121 123 124 125 126 127 128 129 131 132 133 134 136 137 139 140 142 144 145 147
35 35 36 37 38 38 39 40 41 41 42 43 44 44 45 46 47 49 50 50 51 53 54 56 57 57 58 60 61 62 63 65 66 67 69 70 72 74 76 77 78 80 82 83 85 86 88 89 91 92 94 96 97 99 100 102 104 105 106 108 109 111 113 114 116 117 118 120 121 123 124 125 126 128 129 130 131 132 134 135 136 138 139 141 142 143
35 36 36 37 37 38 39 39 40 41 41 42 43 44 45 46 47 48 49 50 51 52 53 55 56 56 57 59 61 61 62 63 64 65 66 68 69 71 72 73 74 75 76 77 78 79 81 82 83 85 86 88 90 91 92 94 96 98 99 101 103 105 106 108 109 111 112 114 116 117 119 120 122 123 125 126 128 129 131 132 134 135 137 139 140 142
35 36 37 37 38 38 39 39 40 40 41 42 42 43 44 45 46 47 48 49 50 51 52 54 56 56 56 58 60 61 62 63 63 64 65 66 67 69 70 71 71 71 72 72 73 74 74 75 77 78 79 80 82 83 84 86 88 90 92 93 95 97 99 101 103 104 106 108 109 111 112 114 116 117 119 121 122 124 125 127 128 130 132 134 137 138
36 36 37 37 38 38 39 39 39 40 40 41 42 42 43 44 45 46 47 48 49 51 52 53 54 56 56 56 59 61 62 63 64 65 66 67 68 69 70 70 71 71 71 72 73 73 73 73 74 75 76 77 78 79 80 81 82 83 85 87 89 91 93 95 97 98 100 102 104 105 107 109 111 112 114 115 117 118 120 121 123 124 126 128 131 133
36 36 37 37 37 37 38 38 39 39 40 41 42 42 44 44 45 47 47 48 49 51 52 53 54 57 58 57 59 62 63 64 66 66 67 69 70 70 71 71 71 71 71 73 74 75 75 75 75 76 76 78 79 80 81 81 82 82 83 85 86 89 91 93 94 95 97 98 100 101 103 105 107 108 110 111 112 114 116 117 118 120 121 123 125 127
36 36 37 37 37 37 38 38 39 40 40 41 42 43 44 45 46 47 48 49 51 52 53 55 55 57 60 59 60 64 66 66 67 67 68 70 72 73 73 74 73 72 72 73 74 76 77 77 77 77 78 78 79 80 81 83 83 83 84 84 86 88 90 92 94 96 97 98 99 100 102 103 104 106 107 108 110 111 113 113 115 116 117 119 122 124
36 37 37 37 37 38 38 38 39 40 41 42 43 44 45 46 48 49 50 51 52 54 55 56 57 58 61 62 62 65 68 67 67 68 69 71 73 74 75 76 76 75 74 74 75 76 77 78 78 79 79 81 81 82 83 84 84 84 84 85 85 87 89 91 93 95 97 99 100 101 103 104 105 107 108 109 110 111 112 112 113 114 115 116 118 120
37 37 37 37 38 38 39 39 40 41 42 43 44 46 47 48 50 51 52 53 54 57 58 59 60 61 63 64 64 67 69 68 68 69 70 71 73 74 76 77 77 77 76 76 77 78 79 79 80 80 81 83 84 85 86 86 86 85 86 86 86 88 90 91 92 94 95 97 99 101 103 104 106 108 109 110 112 114 114 114 115 115 115 116 117 118
37 37 38 38 39 40 41 41 42 43 44 46 47 48 50 51 53 54 55 56 57 59 60 61 62 63 65 65 65 68 69 67 68 69 70 71 73 75 76 77 78 78 77 77 78 79 80 80 81 81 82 84 85 87 88 88 88 88 88 89 89 90 92 93 93 94 95 96 98 100 102 104 106 108 109 111 113 115 116 117 118 118 118 119 119 119
37 38 38 39 40 41 42 43 44 45 46 48 49 50 51 52 54 55 56 57 58 60 61 61 62 64 66 66 66 68 69 68 69 70 70 72 73 76 77 78 78 78 78 78 79 80 81 82 82 83 84 85 86 88 89 89 90 90 91 91 91 92 95 96 96 96 97 97 98 99 101 103 105 107 109 111 112 115 117 119 119 120 121 121 122 122
37 37 38 39 40 41 43 44 45 46 47 48 49 50 51 52 53 55 56 57 58 60 63 63 64 66 69 69 68 68 68 69 70 70 70 71 73 75 77 78 78 79 79 79 80 81 82 83 84 85 85 86 87 89 90 91 92 92 93 94 94 95 97 98 98 99 99 99 99 100 101 103 105 107 108 110 112 114 117 118 119 120 121 122 122 123
36 37 37 38 40 41 42 43 45 46 47 48 50 51 52 53 54 56 57 58 58 60 64 66 67 69 72 74 71 69 69 68 69 70 71 72 73 74 76 78 79 79 80 81 82 83 84 85 86 86 87 88 89 90 91 92 93 93 94 95 96 97 99 100 101 101 100 100 100 101 102 104 105 107 109 110 112 114 116 117 118 118 119 120 121 121
36 37 38 39 41 42 43 44 45 47 48 49 51 52 54 55 56 56 57 58 57 57 60 63 66 69 74 78 74 71 70 69 69 71 71 71 72 74 76 77 79 80 81 83 83 84 86 87 88 89 89 90 90 91 92 93 94 94 95 96 97 98 100 101 102 101 101 101 101 101 103 105 106 108 109 110 112 113 115 115 115 115 116 117 118 117
37 38 39 40 41 42 43 44 45 46 47 49 49 51 52 53 54 54 55 56 56 55 56 59 62 65 73 80 77 71 69 69 70 71 71 72 73 75 76 77 78 79 81 83 84 86 87 89 90 90 91 91 91 92 92 93 94 95 96 97 98 99 100 101 102 101 101 101 101 102 104 106 108 109 111 112 112 114 115 114 113 113 113 114 115 115
37 38 38 39 40 41 42 43 44 45 46 46 47 48 49 50 51 51 51 52 52 52 52 55 58 61 71 80 78 70 66 66 69 71 71 73 75 76 77 77 78 79 81 83 85 87 88 89 90 91 91 92 92 93 93 94 95 96 97 98 99 99 99 100 101 101 101 101 102 104 106 108 109 111 113 114 114 115 116 115 113 112 112 112 112 112
37 37 38 39 39 41 42 43 43 44 44 45 45 46 47 48 48 49 50 49 49 49 47 48 51 54 65 78 76 69 67 66 68 69 71 73 76 77 78 78 79 80 82 84 85 87 88 89 89 90 91 91 92 93 94 95 96 97 98 99 99 99 99 99 100 101 101 102 104 106 108 110 111 112 114 115 115 116 116 115 113 112 111 109 108 108
37 37 38 39 40 41 43 44 44 44 45 45 45 46 46 47 47 47 49 49 49 49 46 46 45 47 61 73 71 68 69 68 67 68 69 72 75 76 77 77 78 80 81 83 84 85 86 87 88 89 90 91 92 93 94 95 96 97 97 98 98 98 98 99 100 101 102 103 105 107 109 110 111 112 112 112 111 112 112 111 110 108 106 105 103 103
39 40 40 41 42 43 43 44 44 44 44 44 44 44 44 44 44 44 45 47 47 47 47 45 42 45 58 66 64 65 67 67 66 65 67 70 72 74 75 76 77 78 80 82 83 84 85 86 88 89 90 91 92 93 94 95 95 96 97 97 98 98 98 99 100 101 103 104 106 107 108 109 110 110 110 110 110 111 111 111 109 107 105 104 102 101
40 41 42 42 42 42 42 42 42 42 42 42 41 41 42 42 41 41 40 41 44 45 45 42 40 45 55 58 57 61 62 62 62 61 62 64 66 68 70 71 73 75 76 78 80 81 83 85 86 88 89 90 91 92 93 94 95 95 96 96 97 97 98 99 100 102 104 106 107 108 108 109 109 109 109 108 109 110 111 111 110 109 108 106 105 103
39 40 41 42 42 41 41 41 41 42 43 43 42 41 42 42 43 43 40 39 42 47 46 41 39 47 55 55 56 59 59 59 60 59 59 59 61 63 64 66 68 70 72 73 75 77 79 81 83 84 86 87 88 90 90 91 92 93 93 94 95 96 97 99 100 102 105 106 107 108 107 107 107 107 106 105 105 106 107 107 107 107 106 105 104 103
39 40 40 42 45 45 45 44 44 45 46 47 47 46 46 46 48 49 47 43 46 53 55 47 44 52 59 56 57 59 58 60 60 59 59 58 58 61 62 64 66 67 69 71 73 75 77 79 80 82 83 84 85 86 87 88 88 89 90 92 93 95 96 99 101 103 105 106 107 107 107 106 105 104 102 101 101 102 102 103 102 102 101 101 100 100
39 40 40 40 42 46 48 48 49 50 49 51 52 52 52 53 54 55 55 51 50 57 64 58 52 59 66 63 62 62 61 61 62 61 60 59 59 60 62 64 66 67 69 70 72 74 76 78 79 80 81 82 82 83 84 84 85 87 88 90 92 94 96 99 101 103 104 105 105 105 105 104 103 102 101 99 99 99 99 98 98 97 96 96 96 95
40 41 42 42 40 42 46 48 50 52 52 53 55 56 57 58 60 61 61 60 56 59 67 68 62 63 70 70 69 69 67 66 65 64 63 62 61 62 63 65 66 67 69 70 72 74 76 77 78 79 79 80 80 81 81 82 83 85 86 88 91 93 95 98 100 102 102 103 102 102 101 100 100 100 99 98 97 96 95 94 93 92 92 92 92 91
41 42 45 47 45 45 48 50 51 54 55 56 58 60 61 62 64 66 67 67 64 63 68 73 72 69 71 73 73 74 73 71 69 66 64 64 64 64 65 66 67 68 70 71 73 74 76 77 78 79 79 79 79 80 80 81 82 83 84 86 88 91 93 96 97 98 99 99 98 98 97 97 96 96 96 95 93 92 91 89 88 88 88 88 88 88
42 44 47 51 51 50 51 54 55 57 58 60 61 63 65 67 68 70 72 72 71 70 71 74 78 78 76 75 76 76 75 73 71 68 66 65 65 65 66 67 68 70 71 72 74 76 77 78 79 78 78 78 78 78 79 80 80 82 83 85 87 89 91 92 93 94 94 94 93 93 93 93 93 93 92 90 89 87 87 86 85 84 84 83 84 84
43 45 47 51 55 55 54 56 58 59 61 63 64 65 67 69 71 72 74 76 76 76 76 76 79 82 82 80 79 79 78 75 72 70 68 67 67 67 68 68 70 71 72 74 76 77 78 78 78 77 77 76 76 76 76 77 78 80 82 84 86 88 88 89 89 89 89 89 89 89 89 89 89 88 87 86 85 84 83 83 82 81 81 80 80 80
42 45 46 49 54 57 57 57 59 60 63 65 66 67 69 71 72 74 76 78 79 79 80 80 80 83 85 85 84 83 81 78 75 73 71 70 69 69 70 70 72 73 74 75 77 78 79 79 78 77 76 75 74 74 75 76 77 79 81 83 85 85 85 85 85 85 84 84 85 86 86 85 84 83 83 82 82 81 81 80 80 79 78 78 77 77
43 45 46 48 52 56 57 58 60 61 63 65 66 68 70 71 73 75 77 79 80 80 81 83 83 84 86 87 87 86 84 81 78 76 74 73 72 72 72 73 74 75 75 76 77 79 79 79 78 77 75 74 74 74 74 75 77 79 81 82 83 82 82 81 81 81 81 81 81 82 82 82 81 81 80 80 80 79 79 78 77 76 76 75 75 74
45 46 47 48 50 54 56 57 60 62 63 65 66 67 71 73 74 76 78 80 82 82 82 84 85 86 88 89 89 89 88 85 81 79 77 76 75 75 75 75 75 76 76 77 79 80 80 80 79 77 76 75 74 74 75 76 78 79 80 81 81 80 80 80 80 79 79 79 78 78 78 78 78 79 79 78 78 77 76 76 75 74 73 73 72 72
47 48 49 49 50 53 56 57 59 62 64 65 67 68 71 73 74 76 79 82 84 84 84 85 87 89 91 92 92 91 90 87 84 81 79 78 77 76 76 76 76 77 78 79 80 81 81 81 79 78 76 75 75 75 75 76 78 79 80 80 80 80 80 79 79 79 79 78 77 76 76 75 75 76 76 76 76 75 75 74 73 72 71 70 70 70
49 50 51 51 51 53 56 58 60 63 66 66 67 68 71 73 75 76 79 83 86 86 87 88 90 91 93 94 94 93 91 89 85 82 80 79 79 78 78 78 79 79 80 81 82 82 82 82 80 78 77 75 75 75 76 77 79 79 79 79 79 79 79 79 79 78 78 77 76 75 74 73 73 73 73 73 72 72 72 72 71 70 69 69 68 68
50 51 52 53 54 54 57 60 61 63 67 69 68 70 72 74 75 77 78 83 87 88 89 90 91 93 95 96 96 95 93 91 88 85 83 81 81 80 81 81 81 82 82 82 83 83 83 83 81 79 78 76 76 76 77 79 80 81 81 80 80 80 80 79 78 78 78 77 75 74 73 72 71 71 70 69 69 69 69 69 69 69 68 68 67 66
52 53 55 56 57 57 58 61 63 64 68 71 71 72 73 75 76 76 77 82 87 88 89 91 92 94 96 97 98 97 95 93 91 88 86 84 84 83 83 83 83 83 83 84 84 85 85 84 83 81 79 78 77 78 79 81 82 82 82 81 81 81 80 79 78 78 77 76 75 73 72 71 70 69 68 68 67 67 66 66 67 67 67 66 65 64
54 56 57 58 60 60 61 63 65 66 68 71 71 72 73 75 77 78 78 81 86 88 89 91 93 95 97 98 99 98 96 94 93 90 88 86 85 84 84 84 84 84 84 85 86 86 86 86 85 82 81 79 79 80 81 82 83 82 82 81 81 81 79 79 78 78 77 76 75 73 72 70 69 68 67 66 65 65 65 64 65 65 64 64 63 62
56 58 60 61 63 64 64 66 67 68 70 72 73 73 75 76 79 80 80 81 85 88 89 91 94 96 98 99 99 99 97 94 93 91 89 87 86 85 84 84 84 85 85 86 87 87 88 88 87 85 83 82 81 82 83 83 84 83 82 82 82 81 80 79 78 78 77 76 74 73 71 70 69 67 66 65 64 64 64 63 63 63 62 61 60 60
58 60 62 64 65 67 68 69 71 72 73 75 75 76 77 79 81 82 82 83 86 88 90 92 95 97 99 100 100 100 97 95 93 91 89 87 86 85 84 84 85 85 86 87 88 89 89 89 88 87 85 84 84 84 85 85 85 84 83 83 82 81 80 79 79 78 77 76 74 73 71 69 68 67 66 65 64 63 63 62 62 61 60 59 58 57
59 61 64 66 68 70 71 72 72 73 75 77 77 78 79 80 82 84 86 86 88 90 92 94 96 99 100 101 101 100 99 96 94 92 90 88 87 86 86 85 85 86 87 87 88 90 90 90 89 88 86 85 85 86 86 86 86 85 84 84 83 81 80 79 78 78 77 76 74 72 71 69 68 66 65 64 63 62 62 62 61 60 59 57 56 56
60 62 65 67 69 71 74 75 73 72 74 77 78 79 80 82 84 86 88 89 90 92 94 96 98 100 101 102 102 101 100 98 96 94 92 90 89 88 87 87 87 87 88 88 89 90 90 90 90 89 87 86 86 86 87 86 86 86 85 84 83 81 80 79 78 78 77 76 74 72 71 69 67 66 65 63 63 62 61 61 61 60 58 57 56 56
63 64 66 69 71 72 74 77 76 73 74 77 79 81 82 84 86 88 90 91 92 94 96 98 100 102 103 104 103 102 101 99 97 95 93 91 90 89 88 88 88 88 89 90 90 91 91 91 90 89 88 87 86 87 87 87 86 86 85 84 83 81 80 78 78 77 77 75 74 72 70 69 67 66 65 64 63 62 62 61 61 60 58 57 56 56
66 67 68 70 73 74 75 79 79 77 77 79 81 83 85 86 88 90 91 92 94 96 98 100 102 103 104 105 105 103 101 99 97 96 94 92 91 90 89 89 89 89 90 90 91 91 92 92 91 90 88 87 87 87 87 87 86 85 84 84 82 81 79 78 78 77 76 75 74 72 70 69 67 66 65 64 63 63 62 62 61 60 58 57 56 56
66 69 70 71 73 75 76 79 81 81 82 82 83 85 87 89 90 92 93 94 95 97 99 101 103 105 106 106 106 104 102 100 98 96 94 92 91 90 89 89 89 90 90 90 91 91 92 92 92 90 89 88 87 87 87 87 87 85 84 84 82 80 79 78 77 77 76 75 74 72 70 68 67 65 64 63 62 63 63 62 61 61 59 58 58 57
67 70 71 72 74 75 76 79 81 83 85 85 85 87 89 91 92 94 94 96 97 99 101 103 105 107 108 108 107 105 102 100 98 96 94 92 91 90 90 90 90 90 90 91 91 92 92 92 92 91 89 88 88 87 88 87 87 86 85 84 82 81 79 79 78 77 76 75 74 73 71 68 66 64 63 62 61 61 61 61 61 60 60 59 58 58
68 71 71 72 73 74 76 78 80 82 85 87 87 89 90 92 93 95 96 97 98 100 102 104 106 108 109 108 107 105 102 100 98 96 95 93 91 91 90 90 90 91 91 91 92 92 92 92 92 91 90 89 88 88 87 87 86 86 85 84 83 81 80 79 78 77 77 76 75 73 71 69 67 64 62 61 59 59 59 60 60 59 59 58 58 58
68 71 71 72 73 76 77 79 80 82 86 88 89 90 92 93 95 96 97 98 100 101 103 105 107 108 109 109 107 105 102 100 98 96 95 93 92 91 91 91 91 91 92 92 92 92 92 92 92 91 91 90 89 88 88 87 86 86 85 84 83 81 80 79 78 78 77 76 75 73 72 70 68 65 63 60 59 57 56 57 58 57 57 58 58 58
69 71 72 72 74 77 79 80 81 83 86 89 90 92 93 95 96 97 98 99 101 102 104 106 107 109 110 109 107 104 101 99 98 96 95 93 92 91 91 92 92 92 92 92 92 92 92 92 92 92 91 91 90 89 88 87 86 86 85 84 83 82 80 79 79 78 77 76 75 73 72 70 68 66 64 62 59 57 55 55 56 56 55 55 57 58
71 72 73 74 75 78 80 82 83 84 86 89 91 93 94 96 97 98 99 100 101 103 105 106 108 109 110 108 106 103 100 98 97 96 94 93 92 92 92 92 92 93 92 92 92 92 92 92 92 92 92 91 90 89 88 87 86 85 85 84 83 82 81 80 79 78 77 76 74 73 72 70 69 67 65 63 61 58 55 53 53 54 54 53 54 55
73 74 76 77 77 79 82 84 85 86 87 90 92 94 96 97 98 98 99 101 102 104 106 107 109 110 109 108 105 102 100 98 97 95 94 93 92 92 92 93 93 93 93 93 92 92 92 92 92 92 92 91 90 89 88 86 85 85 84 84 83 82 81 81 80 79 78 76 74 73 72 71 69 68 66 64 62 60 57 53 50 51 52 53 53 54
75 76 78 79 80 82 84 86 87 88 89 91 93 95 97 98 99 99 100 102 103 105 107 108 110 110 109 107 104 101 100 98 97 95 94 93 92 92 92 93 93 93 93 93 93 93 92 92 92 92 92 91 90 89 88 86 85 85 84 84 83 82 81 80 80 79 78 77 75 73 72 71 70 69 67 65 63 62 60 57 53 49 48 49 51 53
Wind_Direction
281 279 277 276 276 276 276 276 276 276 275 274 274 273 272 272 272 271 271 271 271 271 271 271 272 272 273 273 274 274 274 273 273 272 272 272 272 273 273 273 273 274 274 274 275 275 275 275 275 275 275 275 275 275 275 274 274 274 273 273 272 272 271 271 270 270 269 269 268 268 268 267 267 267 267 266 266 266 266 265 265 265 265 265 264 264
286 285 283 282 281 280 280 280 279 279 278 278 277 276 275 275 274 274 274 273 273 274 274 274 275 275 276 276 277 277 277 277 276 276 276 275 275 275 275 276 276 276 276 276 276 276 276 276 276 276 276 276 276 276 275 275 275 274 274 274 273 273 272 272 271 271 270 270 269 269 268 268 267 267 267 267 266 266 266 266 265 265 265 264 264 264
287 285 284 284 283 282 282 282 281 281 281 280 280 279 279 278 277 277 277 277 277 277 278 278 278 278 279 279 279 279 279 279 279 279 279 278 278 278 278 278 278 278 278 278 278 278 278 278 278 277 277 277 277 276 276 276 275 275 275 274 274 274 273 273 272 272 272 271 271 270 270 269 269 268 268 267 267 267 266 266 266 265 265 265 264 264
288 287 286 285 285 284 284 284 284 284 283 283 283 283 282 282 282 282 281 281 281 281 281 281 281 281 281 281 281 281 281 281 281 281 281 281 281 281 281 281 281 281 281 281 281 281 280 280 280 279 279 278 278 277 277 277 276 276 276 275 275 274 274 274 273 273 273 272 272 271 271 270 270 270 269 268 268 268 267 267 267 266 266 266 265 265
292 292 291 290 290 289 288 288 288 287 287 287 287 286 286 285 285 285 284 284 284 283 283 283 283 283 283 283 283 283 283 283 283 283 283 283 283 283 283 282 282 282 282 282 282 282 282 281 281 281 280 280 279 279 278 278 278 277 277 276 276 276 275 275 274 274 273 273 273 272 272 271 271 270 270 269 269 268 268 268 267 267 267 266 266 265
295 294 294 293 292 291 290 290 289 289 288 288 287 287 286 286 285 285 285 285 285 285 284 285 285 284 284 284 284 284 284 284 283 283 283 282 282 282 282 282 282 282 282 282 282 282 283 283 283 283 282 282 281 280 280 279 279 279 278 278 278 277 277 276 276 275 275 274 274 273 273 272 272 271 271 270 270 269 269 268 268 267 267 267 266 266
295 294 293 292 291 291 290 290 289 289 288 288 287 287 287 287 287 287 287 287 287 286 286 285 286 286 285 285 285 285 284 284 284 283 283 282 282 282 282 283 283 284 284 284 285 285 285 286 286 286 286 286 285 284 283 282 281 281 281 281 280 280 279 278 277 277 276 276 275 275 274 274 273 273 272 272 271 271 270 269 269 268 268 267 267 267
296 294 293 292 291 291 290 290 290 291 291 291 291 291 291 291 291 290 290 289 288 287 286 286 286 286 285 285 285 285 284 284 285 285 285 285 284 284 283 284 284 286 287 288 289 289 289 289 290 290 290 290 290 290 289 288 287 287 287 287 286 286 285 283 282 281 280 279 278 277 276 276 275 274 274 273 272 272 271 271 270 270 269 269 268 268
297 296 294 293 292 292 293 293 294 294 295 295 294 294 293 292 291 290 290 289 288 287 287 286 286 286 286 286 286 286 286 285 286 287 287 287 287 286 286 286 286 286 288 289 289 290 290 290 290 291 291 291 291 291 291 290 290 290 290 290 290 289 289 288 287 286 285 283 282 281 280 279 278 277 276 275 275 273 272 272 271 271 270 270 269 269
299 297 296 296 296 296 296 296 296 295 295 294 293 293 292 291 291 290 289 288 288 287 287 287 286 286 286 286 286 286 285 286 286 287 287 288 288 289 289 289 288 288 289 289 289 289 289 289 289 289 289 289 289 289 289 289 290 290 290 291 291 290 289 289 288 287 286 286 285 284 283 282 282 281 280 279 278 277 276 275 274 273 272 271 270 270
301 300 299 298 298 298 298 297 296 295 294 293 293 292 292 291 290 290 289 289 288 288 288 287 287 287 286 286 286 285 285 286 287 287 288 289 290 290 290 290 290 290 290 290 291 290 290 290 290 289 289 289 288 288 288 288 289 290 290 290 290 290 290 289 288 288 286 285 284 283 283 282 282 281 281 281 280 280 279 278 278 277 275 274 273 272
303 302 301 300 299 299 298 297 297 296 296 295 295 294 294 293 293 292 292 292 291 290 289 289 288 288 286 286 285 285 286 288 288 288 289 290 291 291 291 291 291 291 291 291 291 291 291 291 290 290 289 289 288 288 288 288 289 289 290 290 290 290 290 290 289 288 287 285 284 283 282 281 281 280 280 280 280 280 279 279 279 278 278 277 277 276
306 305 304 303 302 301 301 300 299 299 298 298 297 296 295 295 294 294 293 293 292 291 290 290 290 290 289 288 287 287 289 290 290 290 291 291 291 291 290 290 290 290 290 290 291 291 291 291 291 290 290 289 289 289 289 289 289 289 289 290 290 291 291 290 290 289 288 286 285 284 282 281 280 280 279 279 279 278 278 278 278 278 278 278 277 277
309 308 307 307 306 305 304 304 303 302 301 301 300 299 298 297 296 295 295 295 296 296 295 294 294 293 291 289 289 289 290 290 291 291 291 290 290 290 289 289 290 290 290 290 290 290 291 291 291 291 291 290 290 290 290 289 289 289 289 290 291 291 291 291 291 290 289 288 286 285 284 282 281 280 280 279 278 278 277 277 277 277 277 277 277 276
312 312 311 310 309 309 308 307 306 305 304 303 302 302 301 300 299 298 298 298 298 299 298 297 296 294 292 290 289 289 289 290 291 291 291 291 290 290 290 290 290 291 291 291 291 291 291 291 291 291 291 291 291 291 290 290 289 290 290 290 291 291 291 292 291 291 290 289 288 287 285 284 283 282 281 280 280 279 278 278 277 277 276 276 275 275
317 317 316 314 313 312 311 309 308 307 306 305 304 304 303 302 301 300 300 299 298 298 297 296 296 295 293 290 290 291 292 293 293 292 292 292 291 291 290 291 291 292 292 292 292 292 291 291 292 292 292 292 291 291 290 290 290 290 290 290 291 291 291 291 291 291 290 289 288 288 287 287 286 285 284 283 283 282 281 280 280 279 279 278 277 276
320 320 318 317 316 314 313 311 310 309 308 308 307 307 306 305 304 303 302 301 301 300 299 298 297 297 294 292 293 295 296 297 295 294 294 293 292 291 290 290 291 291 291 291 291 291 291 292 292 293 293 292 292 291 291 291 290 290 290 290 291 291 292 292 291 291 290 290 290 289 289 289 288 288 287 286 286 285 284 283 282 282 281 280 280 279
323 323 322 320 319 318 316 315 314 313 312 312 311 310 309 308 307 307 306 305 305 304 303 301 300 300 296 294 295 299 300 299 297 296 295 295 293 292 292 292 292 292 292 292 292 291 292 292 293 293 293 293 292 292 291 291 291 291 291 291 291 292 292 292 292 292 292 292 292 291 291 290 290 290 289 289 288 288 287 286 285 284 283 282 281 281
326 327 326 324 324 323 322 321 321 320 319 318 317 315 315 314 314 313 312 311 309 308 307 305 305 304 296 293 298 304 303 300 298 298 298 296 295 295 295 295 295 294 293 293 292 292 293 293 293 293 293 293 292 292 292 291 291 291 292 292 292 293 293 293 293 293 293 293 293 293 292 291 291 290 290 289 288 288 287 286 285 285 284 283 282 282
331 331 331 330 331 331 330 329 328 327 326 325 324 323 322 321 321 321 320 319 317 315 313 311 312 306 295 297 304 306 304 302 301 301 299 297 296 296 296 296 295 294 294 293 293 294 294 294 294 293 293 292 292 292 292 292 292 292 293 293 293 294 294 294 294 294 294 294 293 292 292 291 291 290 289 289 288 288 287 286 285 285 284 284 283 282
336 336 337 337 337 336 335 334 333 333 332 331 330 329 327 326 327 327 327 326 324 322 320 319 320 311 303 306 311 309 306 307 305 302 299 297 297 296 296 296 295 295 294 294 295 295 295 294 294 293 293 293 293 293 293 293 293 293 294 294 294 294 294 294 294 294 294 293 293 292 293 293 293 292 292 292 292 292 291 290 289 289 288 287 286 284
341 341 340 340 340 339 339 337 336 335 334 333 332 331 330 330 329 329 329 330 329 326 324 325 328 322 315 316 318 316 315 313 310 306 304 302 301 300 300 299 298 297 297 297 297 297 296 296 295 295 294 294 294 294 294 294 294 294 294 294 294 295 295 295 296 296 295 295 294 294 294 294 294 294 294 293 293 292 291 291 291 291 290 289 288 287
342 342 342 341 340 340 340 339 338 338 336 335 334 334 333 333 332 331 330 331 333 331 327 327 331 327 322 323 325 324 323 320 316 313 311 310 308 307 306 305 304 303 304 303 303 301 300 299 299 298 298 297 297 296 296 296 295 295 295 296 296 296 297 297 297 296 296 296 296 296 295 295 294 294 293 293 292 291 290 290 290 290 289 289 288 286
341 342 343 344 343 342 342 342 342 341 341 340 339 338 338 338 338 337 335 336 339 339 335 332 335 332 328 328 330 329 328 326 323 319 316 314 313 312 310 309 309 309 309 308 306 305 304 303 303 302 301 300 299 298 298 297 297 297 297 297 298 298 298 298 298 297 297 297 297 297 297 296 295 295 294 293 292 291 290 290 289 288 288 287 286 285
342 342 342 344 346 345 344 345 345 344 344 345 343 343 343 342 342 342 340 341 344 346 341 337 341 340 335 334 335 334 332 331 328 324 321 319 317 315 314 313 313 313 311 310 309 308 308 307 305 304 303 302 301 300 299 299 299 299 299 299 300 300 299 299 298 298 298 298 298 298 298 297 297 296 295 294 293 292 291 290 289 289 288 287 286 285
342 342 341 342 345 346 345 345 345 344 345 346 346 345 345 346 345 345 344 343 346 349 346 340 343 345 340 339 339 338 336 335 333 330 327 324 321 319 318 317 316 315 314 313 312 311 310 309 308 306 305 304 303 302 302 301 301 301 301 301 301 300 299 299 299 299 299 299 299 299 298 298 297 296 296 295 294 293 292 291 290 289 288 288 287 286
341 342 343 342 343 347 347 346 346 346 346 347 348 347 347 347 347 346 345 345 346 350 348 343 343 345 343 341 342 340 339 338 335 333 331 327 324 322 321 320 319 318 317 315 315 314 313 312 311 310 308 307 306 305 304 304 303 302 302 301 301 300 300 300 300 300 300 300 300 299 299 298 297 297 296 295 294 294 293 292 291 290 289 288 287 286
341 342 344 343 342 347 349 347 347 347 347 348 349 348 347 348 348 347 345 345 346 349 349 346 344 344 343 343 342 340 339 338 336 334 331 328 325 324 323 322 321 319 318 318 318 317 317 315 314 312 310 309 307 307 306 305 304 304 303 303 302 302 301 302 301 301 301 300 300 299 299 298 298 297 297 296 295 295 294 293 292 291 290 289 288 287
341 342 345 344 341 345 349 347 347 347 347 348 349 348 347 347 347 347 345 344 346 348 348 347 345 343 342 343 343 341 339 338 336 334 332 329 327 326 325 324 322 321 321 321 321 320 318 317 315 313 311 310 309 307 306 306 306 306 306 305 304 304 304 303 303 302 302 301 301 300 300 299 299 299 298 298 298 297 296 296 295 294 293 291 290 288
342 342 344 344 341 342 346 346 345 346 345 346 347 346 346 346 346 345 344 343 345 347 346 346 346 344 342 342 342 341 339 338 337 335 333 331 330 328 327 326 324 324 324 323 322 321 320 319 317 315 313 311 310 309 309 309 309 308 307 306 306 306 305 305 304 304 304 303 303 302 302 302 302 301 301 300 300 299 299 298 297 296 295 293 292 290
340 340 342 344 341 340 344 344 342 343 343 344 345 344 343 345 344 344 343 342 344 346 345 345 345 344 342 342 342 341 339 338 337 336 334 332 331 330 329 328 327 326 325 324 323 322 321 320 318 316 314 313 313 313 313 312 311 310 309 308 308 308 307 307 307 306 306 306 306 306 305 305 305 304 304 303 302 301 301 300 299 298 297 295 294 292
338 338 339 341 340 339 341 342 340 340 341 342 344 342 341 342 343 342 341 340 342 345 344 343 344 343 342 342 342 341 339 339 338 336 334 333 332 331 330 329 327 326 325 325 325 324 323 322 320 319 317 317 316 316 315 313 312 312 311 311 311 311 311 311 310 310 309 309 309 309 309 308 308 307 306 305 304 303 302 301 300 299 298 297 296 294
335 336 336 338 339 337 338 340 339 338 338 340 342 340 339 340 341 341 340 338 340 343 343 342 342 342 342 342 342 341 340 338 337 336 335 333 332 332 330 329 328 327 327 327 326 326 325 324 323 321 320 319 318 317 316 315 314 314 314 315 315 315 315 314 313 313 313 313 313 312 312 310 309 308 307 307 306 305 304 303 302 301 300 299 297 296
332 333 333 335 337 337 336 337 338 336 335 338 340 338 337 338 339 340 339 337 339 341 341 341 342 342 342 342 341 340 339 338 337 336 335 334 332 332 331 330 329 329 328 328 327 327 326 326 325 324 322 321 320 319 318 318 317 317 318 318 318 318 318 317 316 316 316 316 316 315 314 312 311 310 309 308 307 306 305 305 304 303 302 301 299 298
329 330 331 332 334 335 335 335 337 336 334 336 338 337 337 337 337 339 339 336 337 340 340 340 341 341 341 341 340 340 339 338 337 336 335 334 333 333 332 331 331 330 329 329 328 328 328 328 327 325 324 323 322 322 321 321 321 322 322 322 321 321 320 320 319 318 318 318 318 317 316 314 313 312 311 310 309 308 307 306 305 305 303 302 301 300
327 327 328 330 331 333 334 333 335 335 333 333 336 336 336 336 336 337 338 336 336 338 339 339 340 340 340 340 340 340 340 339 337 336 336 335 334 334 333 332 331 330 329 329 329 329 330 329 328 327 326 326 325 325 325 325 325 324 324 324 324 323 323 322 321 321 321 321 320 319 318 317 315 314 313 312 311 309 309 308 307 306 305 304 303 302
326 326 327 328 329 331 332 331 332 333 331 331 334 334 334 334 334 336 337 335 335 337 338 338 339 339 339 340 340 340 340 339 337 336 336 335 334 333 332 331 331 330 330 330 330 330 331 331 330 330 329 328 328 328 327 327 326 326 326 326 326 325 324 323 323 323 323 323 322 321 320 319 318 317 315 314 313 312 311 310 308 307 306 305 305 304
324 325 325 327 327 328 330 330 330 331 329 330 333 333 333 333 333 334 336 335 335 336 337 338 338 338 339 339 339 339 339 339 337 336 336 335 334 333 332 331 331 330 331 331 331 332 332 332 332 332 331 331 330 330 329 329 328 328 328 328 327 327 326 326 325 325 325 324 324 323 322 321 320 319 318 317 316 315 314 312 310 309 308 307 307 306
323 324 324 325 326 327 328 328 329 330 329 330 332 333 333 333 333 333 334 334 334 335 336 337 337 338 338 339 339 339 339 338 338 337 336 335 334 333 332 331 331 331 331 332 332 333 334 334 334 333 333 333 332 332 331 330 330 330 329 329 329 328 328 328 327 327 326 326 326 324 324 323 322 321 320 319 318 317 316 314 312 310 310 309 309 308
321 322 323 324 325 326 326 326 328 330 329 329 331 332 333 333 333 332 333 334 334 335 335 336 337 338 338 339 339 339 339 338 338 337 336 335 334 333 332 332 332 332 332 333 333 334 334 335 335 335 334 334 334 333 332 331 331 331 331 330 330 330 329 329 328 328 328 327 327 326 325 324 324 323 322 321 320 319 318 316 314 312 312 311 311 311
320 321 322 323 324 325 325 325 328 330 329 329 331 332 332 332 332 332 333 333 334 334 335 336 337 337 338 338 339 339 339 338 338 337 336 335 335 334 333 332 332 332 333 334 334 334 335 335 336 336 335 335 335 334 333 332 332 332 332 331 331 331 330 330 329 329 329 328 328 327 327 326 325 325 324 323 322 321 320 318 316 315 314 314 315 315
320 321 322 323 324 325 324 324 327 330 329 329 331 331 332 332 332 332 333 333 334 334 335 336 337 337 338 338 339 339 339 338 337 337 336 335 335 334 333 333 333 333 334 334 334 335 336 336 336 337 336 336 335 334 334 333 333 332 332 332 332 331 331 331 331 331 330 329 329 329 328 327 327 326 326 325 324 323 322 320 318 317 317 317 317 318
320 320 322 323 324 325 324 324 326 330 330 330 331 331 332 332 332 332 333 333 334 334 335 336 336 337 338 338 339 339 339 338 337 336 336 335 335 334 334 334 334 334 334 334 335 335 336 336 337 337 337 337 336 335 335 334 333 333 332 332 332 332 332 332 332 332 331 331 330 330 329 329 329 328 328 327 326 325 324 322 321 320 319 320 320 320
319 320 322 324 324 325 325 325 327 330 330 331 332 331 331 332 332 332 333 333 333 334 335 335 336 337 337 338 338 339 338 337 337 336 336 335 335 334 334 334 334 334 334 335 335 336 336 337 337 337 338 337 337 336 335 334 334 333 333 333 333 333 333 333 333 333 333 332 331 331 330 330 330 330 329 329 328 327 325 324 323 322 322 322 322 322
319 319 322 324 324 325 325 325 327 329 329 330 331 331 331 331 331 332 332 333 333 334 334 335 336 337 337 337 338 338 338 337 337 336 335 335 335 334 334 334 334 334 334 335 335 336 336 337 337 338 338 338 337 337 336 335 334 333 333 333 334 334 334 334 334 334 334 333 332 332 331 331 331 331 331 330 330 328 327 325 324 324 323 324 324 324
319 319 321 324 324 324 324 325 327 328 328 329 330 330 330 331 331 332 332 332 333 333 334 335 336 336 337 337 337 337 337 336 336 336 335 335 334 334 334 334 334 334 335 335 336 336 337 337 338 338 338 338 338 337 336 335 334 334 334 334 334 334 334 334 335 335 335 334 333 332 332 332 332 332 332 332 331 330 328 326 325 325 325 325 325 326
319 319 321 323 323 323 324 325 327 328 328 329 330 330 330 330 331 331 331 332 332 333 334 335 335 336 336 336 337 337 336 336 335 335 335 334 334 334 334 334 334 335 335 335 336 336 337 337 338 338 339 339 338 338 337 336 335 334 334 335 335 335 335 335 335 336 336 335 334 333 332 332 332 333 333 333 332 332 330 328 326 326 326 326 326 326
319 320 322 323 323 323 323 325 327 328 328 328 329 329 329 330 330 331 331 331 332 333 333 334 335 335 336 336 336 336 335 335 335 335 334 334 334 334 334 334 335 335 335 335 336 336 337 337 338 339 339 339 339 338 337 336 335 335 335 335 336 336 336 336 336 336 337 336 335 334 333 332 333 333 333 333 333 333 332 330 327 327 327 328 328 327
320 321 322 323 323 323 323 325 326 327 327 327 328 328 329 329 330 330 330 331 331 332 333 334 334 335 335 335 335 335 335 335 335 334 334 334 333 333 334 334 335 335 335 336 336 336 337 337 338 339 339 339 339 338 337 336 335 335 336 336 336 336 336 336 336 337 337 337 336 334 333 333 333 334 334 334 334 334 333 332 330 328 328 328 329 328
321 321 322 323 323 323 323 324 325 326 327 327 327 327 328 328 329 329 330 330 331 331 332 333 334 334 334 334 334 334 334 334 334 334 333 333 333 333 334 334 335 335 335 336 336 336 337 338 338 339 340 339 339 338 337 336 336 336 336 337 337 337 337 337 337 337 337 337 337 336 334 334 334 334 334 334 334 334 333 333 332 330 330 330 330 330
321 321 322 323 323 323 323 324 324 325 326 326 326 326 327 327 328 329 329 330 330 331 332 333 333 333 333 333 334 334 334 334 334 333 333 333 333 333 334 334 335 335 335 335 336 336 337 338 339 339 339 339 339 338 337 336 336 336 337 337 337 337 337 337 337 337 337 337 337 337 335 334 334 334 334 335 335 335 334 333 332 332 331 331 331 331
Height
10581 10579 10577 10576 10574 10572 10570 10568 10567 10565 10564 10562 10561 10559 10557 10554 10552 10549 10548 10547 10545 10542 10540 10539 10536 10534 10532 10530 10526 10524 10522 10519 10517 10515 10513 10510 10507 10505 10503 10501 10498 10495 10492 10489 10486 10483 10480 10477 10474 10471 10468 10464 10461 10457 10454 10451 10447 10444 10441 10438 10436 10433 10430 10427 10424 10421 10419 10416 10414 10411 10409 10406 10404 10401 10399 10397 10395 10392 10390 10389 10387 10386 10384 10383 10382 10382
10577 10575 10573 10571 10569 10568 10566 10564 10562 10560 10558 10556 10555 10553 10551 10548 10545 10542 10541 10540 10537 10535 10532 10530 10528 10525 10523 10520 10517 10515 10513 10510 10507 10505 10502 10500 10497 10494 10492 10489 10487 10483 10480 10477 10473 10470 10467 10463 10460 10456 10453 10449 10445 10442 10438 10434 10430 10427 10424 10421 10417 10414 10411 10407 10405 10402 10399 10397 10394 10392 10389 10386 10384 10382 10379 10376 10374 10372 10369 10367 10365 10364 10362 10360 10359 10358
10573 10571 10569 10567 10565 10563 10561 10559 10557 10555 10553 10551 10549 10547 10545 10542 10539 10536 10535 10533 10530 10528 10525 10522 10520 10518 10515 10512 10509 10507 10504 10501 10498 10496 10493 10490 10487 10484 10481 10479 10476 10472 10469 10465 10461 10457 10454 10450 10446 10443 10439 10435 10431 10427 10424 10419 10414 10411 10407 10404 10400 10396 10393 10389 10386 10383 10380 10377 10374 10372 10369 10367 10364 10362 10360 10357 10355 10352 10349 10347 10344 10342 10340 10338 10336 10335
10569 10567 10565 10563 10561 10559 10557 10555 10552 10550 10548 10545 10543 10541 10538 10536 10533 10530 10528 10526 10524 10521 10517 10514 10512 10510 10507 10504 10501 10498 10496 10493 10490 10487 10484 10481 10477 10474 10471 10468 10465 10462 10458 10454 10450 10446 10441 10437 10433 10430 10426 10421 10417 10413 10409 10404 10399 10395 10392 10388 10384 10379 10376 10372 10368 10365 10362 10358 10355 10352 10349 10347 10343 10340 10339 10337 10334 10332 10330 10327 10324 10322 10319 10316 10314 10313
10565 10562 10560 10558 10556 10554 10551 10549 10547 10545 10542 10539 10537 10535 10532 10530 10527 10524 10522 10520 10517 10514 10511 10507 10504 10503 10501 10496 10492 10490 10488 10485 10482 10479 10476 10472 10468 10465 10461 10459 10456 10452 10448 10443 10439 10435 10430 10426 10421 10417 10413 10408 10403 10399 10395 10390 10385 10381 10377 10373 10368 10363 10359 10356 10352 10348 10345 10340 10336 10333 10330 10327 10324 10320 10318 10316 10314 10311 10309 10307 10304 10301 10298 10295 10292 10290
10561 10558 10556 10553 10551 10548 10546 10544 10542 10539 10537 10534 10532 10529 10527 10524 10522 10519 10516 10514 10511 10507 10504 10501 10497 10495 10494 10490 10485 10483 10480 10477 10474 10470 10468 10464 10460 10456 10452 10449 10446 10442 10438 10433 10429 10425 10420 10415 10410 10406 10401 10396 10391 10387 10382 10377 10372 10368 10363 10358 10354 10348 10344 10340 10336 10333 10328 10324 10320 10316 10312 10309 10305 10302 10298 10296 10294 10291 10289 10287 10284 10281 10278 10274 10271 10268
10557 10554 10552 10549 10547 10544 10542 10539 10537 10534 10532 10529 10527 10524 10521 10519 10516 10513 10511 10508 10505 10501 10498 10496 10492 10487 10487 10484 10479 10475 10472 10468 10465 10462 10459 10455 10451 10447 10443 10439 10436 10432 10427 10422 10417 10413 10409 10404 10399 10394 10389 10383 10378 10373 10369 10364 10359 10355 10350 10345 10339 10334 10329 10324 10321 10317 10313 10308 10304 10300 10296 10291 10287 10283 10280 10276 10275 10272 10268 10266 10264 10261 10258 10254 10250 10247
10553 10550 10548 10545 10543 10540 10538 10535 10532 10530 10527 10524 10522 10519 10516 10513 10510 10507 10505 10502 10499 10496 10492 10490 10487 10481 10478 10478 10473 10467 10464 10460 10456 10453 10450 10445 10441 10437 10433 10429 10426 10422 10417 10411 10405 10401 10397 10392 10387 10382 10376 10370 10365 10360 10354 10349 10345 10341 10336 10331 10326 10320 10313 10308 10305 10301 10297 10292 10288 10284 10280 10274 10269 10265 10262 10258 10256 10252 10248 10246 10244 10241 10238 10234 10230 10226
10548 10546 10543 10541 10538 10536 10533 10531 10528 10525 10522 10519 10516 10514 10511 10508 10505 10502 10499 10497 10493 10489 10486 10483 10481 10476 10470 10470 10466 10459 10454 10451 10448 10445 10441 10436 10430 10426 10422 10418 10415 10411 10407 10402 10396 10390 10385 10380 10376 10371 10366 10359 10354 10349 10342 10337 10333 10328 10324 10319 10313 10307 10300 10294 10289 10285 10281 10276 10271 10267 10262 10257 10253 10248 10244 10241 10237 10232 10229 10227 10224 10221 10218 10214 10210 10206
10544 10541 10538 10536 10533 10531 10528 10526 10523 10520 10517 10515 10512 10509 10506 10503 10500 10497 10494 10491 10487 10483 10480 10476 10473 10470 10463 10460 10459 10451 10444 10442 10440 10436 10432 10426 10420 10415 10410 10406 10402 10399 10396 10391 10386 10379 10374 10369 10365 10361 10355 10348 10343 10338 10332 10326 10322 10317 10312 10307 10302 10295 10288 10282 10277 10271 10267 10261 10256 10251 10245 10241 10236 10230 10226 10222 10217 10212 10209 10207 10204 10201 10199 10195 10190 10186
10539 10536 10533 10531 10528 10526 10523 10521 10518 10515 10512 10510 10507 10504 10501 10497 10494 10491 10488 10485 10481 10476 10472 10469 10465 10462 10457 10452 10451 10442 10435 10435 10432 10427 10422 10417 10411 10405 10399 10394 10390 10387 10383 10379 10374 10368 10363 10358 10353 10349 10344 10337 10332 10327 10321 10316 10311 10306 10301 10295 10291 10283 10276 10270 10265 10259 10254 10247 10242 10236 10230 10226 10220 10213 10209 10205 10200 10193 10189 10187 10183 10180 10178 10174 10170 10167
10534 10532 10529 10526 10524 10521 10518 10516 10513 10510 10507 10504 10501 10498 10494 10491 10487 10484 10480 10477 10473 10468 10464 10461 10456 10453 10447 10444 10441 10433 10427 10427 10422 10417 10412 10407 10401 10395 10389 10384 10379 10376 10372 10368 10363 10357 10351 10346 10341 10337 10333 10326 10320 10315 10310 10305 10300 10295 10289 10283 10279 10272 10263 10257 10253 10247 10241 10234 10228 10222 10216 10211 10204 10198 10193 10188 10183 10176 10170 10167 10163 10159 10156 10153 10150 10146
10530 10527 10524 10522 10519 10516 10513 10510 10507 10504 10501 10498 10495 10491 10488 10484 10480 10476 10473 10469 10465 10460 10455 10452 10447 10441 10435 10431 10429 10423 10418 10417 10412 10407 10404 10398 10392 10385 10378 10374 10370 10366 10362 10357 10352 10347 10341 10336 10330 10325 10320 10315 10309 10303 10298 10293 10287 10282 10276 10270 10266 10260 10250 10243 10239 10233 10226 10220 10214 10207 10202 10196 10189 10183 10177 10172 10166 10159 10152 10147 10144 10140 10137 10133 10130 10127
10526 10523 10520 10517 10514 10511 10507 10504 10501 10498 10495 10491 10488 10484 10480 10477 10474 10469 10465 10461 10456 10450 10443 10439 10436 10429 10421 10416 10415 10412 10409 10407 10402 10398 10395 10390 10385 10377 10369 10364 10360 10356 10352 10347 10342 10336 10330 10325 10319 10313 10308 10302 10297 10291 10285 10280 10274 10269 10264 10257 10252 10246 10236 10228 10224 10217 10211 10205 10198 10191 10185 10179 10172 10166 10160 10155 10148 10141 10134 10129 10125 10122 10118 10113 10110 10107
10523 10519 10517 10513 10510 10507 10503 10500 10496 10492 10489 10485 10481 10477 10472 10469 10465 10460 10456 10452 10449 10442 10433 10427 10422 10416 10407 10401 10402 10403 10399 10398 10394 10388 10385 10380 10374 10368 10360 10354 10349 10345 10340 10335 10330 10324 10318 10312 10307 10302 10296 10291 10285 10279 10273 10266 10260 10255 10250 10244 10238 10233 10223 10214 10208 10202 10196 10189 10182 10175 10168 10161 10154 10148 10142 10136 10129 10121 10115 10110 10107 10104 10099 10094 10091 10088
10519 10515 10512 10509 10505 10502 10498 10494 10490 10486 10482 10478 10474 10470 10465 10461 10456 10452 10447 10442 10441 10437 10428 10419 10412 10405 10393 10384 10388 10392 10389 10387 10384 10378 10373 10369 10363 10357 10350 10344 10339 10335 10329 10323 10318 10312 10306 10300 10294 10289 10284 10279 10273 10267 10261 10254 10247 10242 10237 10230 10224 10218 10210 10201 10193 10187 10180 10173 10166 10158 10151 10143 10135 10128 10122 10115 10108 10101 10094 10090 10087 10083 10078 10073 10069 10067
10515 10511 10508 10504 10500 10496 10492 10489 10485 10481 10476 10472 10469 10464 10459 10454 10448 10445 10440 10434 10431 10429 10423 10414 10406 10398 10383 10370 10375 10383 10382 10378 10372 10367 10363 10358 10352 10346 10340 10336 10331 10326 10319 10312 10306 10300 10294 10288 10282 10277 10271 10266 10260 10254 10248 10241 10234 10229 10223 10216 10210 10204 10196 10187 10178 10171 10164 10157 10150 10142 10134 10126 10118 10110 10102 10095 10088 10081 10074 10070 10067 10063 10058 10053 10048 10045
10510 10507 10503 10499 10495 10491 10487 10483 10480 10476 10472 10468 10464 10459 10454 10449 10443 10438 10434 10429 10426 10423 10419 10410 10402 10394 10376 10359 10363 10372 10374 10370 10362 10357 10354 10348 10341 10335 10329 10326 10321 10315 10309 10301 10295 10288 10282 10277 10271 10265 10259 10252 10246 10240 10235 10228 10221 10214 10208 10201 10195 10189 10182 10173 10164 10156 10148 10140 10133 10126 10117 10108 10100 10092 10083 10075 10069 10061 10053 10050 10046 10042 10038 10034 10030 10027
10506 10503 10499 10495 10491 10487 10483 10478 10475 10471 10466 10463 10458 10453 10449 10444 10439 10433 10427 10424 10420 10417 10415 10408 10401 10390 10367 10352 10358 10364 10362 10359 10354 10349 10344 10337 10329 10323 10319 10315 10309 10303 10297 10290 10283 10276 10271 10265 10259 10253 10247 10240 10233 10226 10220 10214 10207 10200 10193 10186 10180 10173 10166 10158 10149 10140 10133 10125 10116 10109 10101 10091 10083 10075 10065 10058 10052 10043 10035 10031 10026 10022 10018 10015 10012 10010
10502 10499 10495 10491 10487 10483 10478 10473 10469 10465 10461 10457 10453 10448 10443 10438 10434 10428 10421 10417 10413 10410 10408 10404 10398 10381 10357 10350 10358 10358 10352 10349 10347 10343 10335 10327 10320 10314 10309 10305 10299 10293 10286 10279 10273 10267 10261 10255 10248 10241 10234 10228 10221 10214 10207 10200 10194 10187 10179 10171 10165 10158 10151 10143 10134 10125 10117 10110 10101 10092 10084 10075 10066 10057 10048 10041 10033 10025 10018 10011 10006 10002 10000 9998 9995 9992
10498 10494 10491 10487 10483 10479 10474 10470 10465 10461 10457 10453 10448 10444 10439 10434 10429 10424 10418 10411 10406 10402 10399 10398 10393 10374 10354 10352 10355 10350 10344 10341 10338 10334 10326 10318 10312 10306 10301 10296 10290 10283 10276 10269 10264 10258 10251 10244 10236 10229 10222 10215 10209 10201 10194 10187 10180 10173 10165 10157 10150 10144 10137 10128 10120 10111 10102 10093 10085 10076 10068 10059 10049 10040 10031 10023 10014 10005 9997 9989 9984 9981 9979 9977 9975 9971
10494 10490 10486 10483 10480 10476 10471 10466 10462 10457 10453 10449 10445 10440 10435 10430 10425 10421 10416 10409 10401 10396 10392 10392 10387 10369 10353 10352 10349 10342 10337 10331 10325 10322 10317 10310 10303 10297 10291 10285 10278 10272 10266 10260 10253 10246 10239 10232 10225 10217 10210 10203 10196 10189 10181 10174 10166 10159 10151 10144 10136 10129 10121 10113 10105 10096 10086 10076 10068 10060 10051 10043 10034 10024 10017 10009 10000 9990 9980 9972 9967 9962 9959 9956 9953 9949
10492 10487 10483 10478 10475 10472 10468 10463 10458 10453 10448 10444 10440 10435 10430 10424 10419 10415 10412 10407 10398 10390 10386 10386 10382 10366 10352 10349 10344 10337 10331 10323 10316 10311 10307 10302 10294 10287 10282 10274 10267 10262 10256 10249 10242 10234 10227 10219 10213 10206 10198 10191 10183 10176 10169 10161 10153 10146 10138 10131 10123 10115 10107 10098 10089 10080 10070 10060 10052 10043 10035 10026 10018 10009 10002 9995 9986 9976 9967 9960 9954 9947 9942 9939 9934 9929
10489 10485 10481 10475 10469 10465 10462 10458 10453 10448 10443 10437 10433 10429 10424 10419 10414 10407 10403 10400 10393 10383 10376 10376 10374 10360 10347 10344 10339 10330 10324 10315 10307 10302 10297 10293 10286 10278 10272 10265 10259 10253 10246 10239 10231 10223 10215 10208 10200 10193 10186 10179 10172 10164 10156 10149 10141 10134 10126 10117 10109 10101 10093 10083 10073 10064 10054 10044 10035 10027 10018 10009 10001 9992 9987 9981 9971 9962 9954 9947 9940 9934 9929 9923 9917 9912
10486 10483 10479 10476 10470 10463 10457 10452 10447 10442 10438 10432 10427 10423 10418 10412 10407 10401 10396 10392 10388 10379 10367 10364 10365 10354 10339 10335 10331 10323 10316 10309 10300 10292 10287 10282 10277 10270 10263 10256 10250 10244 10237 10229 10221 10213 10205 10197 10190 10182 10175 10168 10160 10153 10145 10137 10130 10122 10113 10104 10096 10088 10079 10069 10058 10048 10038 10028 10020 10011 10002 9992 9983 9975 9969 9964 9955 9947 9940 9932 9926 9920 9914 9907 9902 9897
10482 10478 10474 10472 10469 10464 10458 10452 10447 10440 10435 10430 10423 10418 10413 10407 10400 10394 10389 10384 10381 10376 10363 10353 10354 10350 10335 10326 10321 10314 10307 10301 10293 10285 10278 10271 10265 10259 10254 10248 10241 10234 10227 10219 10211 10203 10195 10187 10179 10171 10163 10156 10148 10140 10133 10126 10118 10110 10102 10094 10084 10075 10066 10056 10045 10034 10024 10014 10005 9996 9988 9979 9969 9960 9953 9947 9939 9932 9925 9918 9911 9904 9898 9892 9887 9882
10478 10474 10469 10464 10462 10459 10454 10448 10443 10437 10431 10426 10419 10412 10407 10401 10395 10387 10381 10376 10372 10369 10361 10346 10340 10341 10334 10324 10315 10308 10300 10293 10286 10279 10272 10264 10256 10250 10244 10238 10231 10223 10216 10209 10201 10193 10184 10175 10167 10158 10150 10143 10135 10127 10120 10113 10106 10099 10092 10084 10074 10064 10053 10043 10032 10021 10011 10001 9991 9982 9973 9965 9956 9947 9939 9932 9924 9917 9910 9904 9897 9890 9884 9878 9872 9867
10475 10470 10465 10458 10453 10452 10448 10441 10437 10432 10426 10420 10414 10407 10400 10394 10388 10381 10373 10367 10362 10359 10355 10343 10330 10325 10323 10318 10311 10302 10295 10287 10279 10271 10265 10257 10249 10242 10236 10229 10221 10214 10206 10198 10190 10181 10172 10164 10155 10147 10139 10131 10123 10116 10109 10101 10094 10086 10078 10070 10061 10051 10041 10030 10019 10009 9998 9989 9979 9970 9960 9951 9942 9933 9925 9917 9909 9902 9895 9888 9882 9876 9870 9864 9858 9853
10473 10468 10462 10454 10446 10444 10441 10436 10430 10425 10419 10413 10408 10402 10396 10388 10382 10375 10366 10359 10355 10349 10344 10339 10328 10315 10309 10307 10302 10294 10287 10280 10273 10265 10257 10249 10242 10234 10227 10219 10212 10204 10196 10187 10179 10170 10162 10154 10145 10137 10129 10121 10114 10107 10099 10091 10083 10074 10065 10056 10046 10036 10027 10017 10007 9996 9986 9976 9966 9957 9947 9937 9928 9919 9910 9902 9895 9887 9881 9874 9867 9861 9855 9850 9844 9838
10471 10465 10460 10454 10444 10437 10434 10430 10425 10420 10414 10408 10401 10395 10390 10384 10376 10369 10362 10354 10349 10343 10335 10330 10324 10313 10301 10295 10291 10285 10278 10271 10264 10255 10247 10239 10232 10225 10218 10210 10202 10193 10186 10178 10169 10161 10152 10144 10135 10127 10119 10111 10104 10097 10088 10080 10071 10062 10053 10044 10033 10023 10014 10004 9994 9984 9974 9964 9953 9943 9933 9923 9914 9905 9897 9889 9881 9873 9867 9860 9853 9847 9841 9835 9829 9824
10467 10462 10458 10453 10444 10436 10431 10425 10419 10414 10410 10405 10398 10390 10384 10379 10372 10363 10356 10349 10343 10338 10330 10322 10317 10310 10299 10290 10283 10276 10268 10262 10254 10246 10237 10230 10223 10215 10208 10199 10191 10184 10176 10169 10161 10152 10142 10134 10125 10116 10108 10100 10092 10084 10076 10067 10059 10049 10040 10030 10020 10010 10001 9991 9981 9971 9962 9952 9941 9930 9920 9909 9900 9892 9883 9876 9868 9861 9853 9847 9840 9834 9827 9821 9816 9810
10463 10458 10454 10450 10444 10435 10430 10424 10416 10410 10405 10401 10395 10388 10379 10373 10367 10359 10349 10342 10338 10333 10325 10317 10309 10302 10294 10285 10276 10267 10258 10251 10245 10237 10229 10221 10213 10205 10197 10190 10183 10176 10168 10160 10150 10141 10132 10123 10113 10104 10095 10087 10079 10071 10063 10055 10046 10036 10027 10016 10006 9996 9985 9975 9966 9956 9947 9938 9928 9918 9907 9897 9888 9879 9871 9862 9855 9848 9841 9834 9828 9821 9815 9809 9803 9797
10458 10454 10449 10446 10442 10434 10427 10422 10415 10407 10402 10397 10391 10384 10376 10369 10363 10355 10344 10334 10329 10325 10318 10311 10303 10294 10285 10276 10268 10259 10250 10242 10236 10228 10220 10211 10203 10196 10189 10182 10174 10166 10157 10148 10139 10130 10121 10111 10101 10092 10083 10075 10068 10060 10051 10042 10033 10023 10013 10002 9992 9981 9971 9961 9951 9942 9933 9924 9915 9905 9896 9887 9878 9868 9860 9851 9843 9836 9828 9822 9815 9809 9803 9797 9791 9786
10452 10448 10444 10440 10437 10431 10424 10418 10412 10403 10396 10393 10389 10381 10373 10365 10359 10352 10340 10327 10321 10317 10310 10302 10294 10285 10276 10267 10259 10253 10244 10234 10227 10220 10212 10203 10195 10187 10179 10171 10162 10154 10146 10137 10128 10119 10110 10100 10090 10081 10072 10064 10056 10047 10038 10028 10019 10009 9999 9988 9978 9967 9958 9948 9938 9929 9920 9911 9902 9893 9884 9876 9868 9859 9851 9842 9834 9825 9818 9810 9803 9797 9791 9785 9780 9774
10447 10443 10438 10434 10430 10427 10420 10414 10409 10400 10390 10385 10383 10376 10368 10360 10353 10348 10337 10323 10315 10310 10302 10294 10287 10278 10269 10261 10252 10244 10235 10225 10216 10209 10202 10193 10185 10176 10167 10159 10150 10142 10135 10127 10118 10108 10099 10089 10080 10071 10061 10052 10043 10034 10024 10014 10003 9993 9984 9974 9964 9954 9944 9935 9925 9916 9908 9899 9890 9881 9873 9865 9856 9848 9840 9832 9824 9816 9808 9800 9793 9786 9780 9774 9768 9763
10442 10437 10432 10428 10423 10420 10416 10408 10403 10397 10387 10379 10376 10369 10362 10355 10349 10345 10338 10322 10311 10305 10298 10289 10281 10272 10263 10255 10244 10234 10225 10215 10205 10198 10190 10182 10173 10165 10157 10149 10141 10133 10125 10116 10107 10097 10088 10079 10069 10059 10050 10040 10031 10021 10010 10000 9990 9980 9970 9961 9951 9942 9932 9923 9914 9905 9896 9887 9878 9869 9861 9853 9845 9837 9830 9822 9814 9806 9799 9791 9784 9777 9770 9764 9758 9753
10436 10430 10425 10421 10416 10412 10409 10403 10397 10392 10384 10377 10372 10366 10358 10351 10344 10340 10335 10322 10309 10301 10294 10284 10276 10266 10257 10247 10236 10226 10218 10208 10197 10188 10180 10172 10163 10156 10148 10140 10132 10123 10115 10106 10096 10087 10077 10067 10057 10047 10037 10028 10018 10008 9998 9989 9979 9969 9960 9950 9940 9931 9922 9912 9903 9894 9885 9876 9867 9858 9850 9842 9834 9827 9819 9811 9804 9796 9789 9781 9774 9767 9761 9754 9749 9743
10430 10424 10418 10413 10408 10403 10400 10396 10391 10386 10378 10371 10367 10360 10352 10345 10337 10331 10327 10318 10305 10296 10288 10279 10270 10261 10250 10240 10230 10219 10211 10202 10191 10181 10173 10164 10156 10148 10141 10133 10124 10115 10106 10096 10086 10076 10066 10055 10045 10035 10025 10015 10006 9996 9987 9978 9968 9958 9949 9939 9930 9920 9911 9901 9892 9883 9874 9866 9857 9849 9841 9833 9825 9817 9809 9801 9794 9786 9779 9772 9765 9758 9752 9746 9740 9734
10425 10419 10412 10406 10401 10395 10391 10386 10382 10376 10368 10361 10356 10351 10343 10336 10328 10321 10317 10311 10300 10290 10282 10273 10264 10254 10244 10234 10224 10213 10203 10195 10186 10175 10166 10158 10150 10141 10133 10124 10115 10106 10097 10087 10076 10065 10055 10045 10034 10024 10014 10004 9994 9985 9975 9966 9957 9948 9938 9929 9919 9910 9900 9891 9882 9873 9864 9856 9847 9839 9831 9823 9815 9808 9800 9792 9785 9777 9770 9763 9756 9750 9744 9738 9733 9727
10421 10415 10408 10401 10395 10388 10383 10379 10375 10368 10359 10352 10347 10342 10335 10328 10320 10312 10306 10301 10293 10283 10275 10265 10256 10246 10236 10227 10217 10205 10194 10185 10176 10167 10158 10149 10141 10132 10123 10114 10105 10096 10087 10077 10066 10056 10046 10036 10025 10014 10003 9994 9984 9974 9965 9955 9946 9937 9927 9918 9909 9900 9891 9882 9873 9864 9855 9846 9838 9830 9822 9814 9807 9799 9791 9784 9776 9769 9761 9754 9747 9741 9735 9730 9724 9718
10417 10411 10403 10396 10390 10384 10375 10370 10369 10365 10355 10345 10340 10335 10327 10320 10313 10304 10295 10288 10281 10273 10265 10256 10247 10238 10228 10218 10208 10197 10185 10174 10165 10156 10147 10138 10129 10121 10112 10104 10095 10086 10076 10067 10057 10047 10037 10026 10016 10005 9995 9985 9975 9965 9956 9946 9936 9926 9917 9909 9900 9891 9882 9873 9865 9855 9846 9838 9830 9822 9813 9805 9798 9790 9783 9775 9768 9761 9753 9745 9738 9731 9726 9720 9714 9708
10409 10405 10399 10390 10383 10378 10369 10360 10359 10360 10352 10341 10334 10327 10320 10312 10303 10295 10287 10279 10271 10262 10254 10246 10237 10228 10218 10208 10197 10188 10177 10166 10157 10147 10138 10129 10120 10112 10103 10095 10086 10076 10066 10056 10047 10037 10027 10017 10007 9997 9987 9977 9967 9957 9947 9937 9927 9918 9909 9901 9892 9883 9874 9865 9857 9848 9838 9830 9822 9814 9805 9797 9789 9782 9774 9766 9759 9752 9745 9737 9729 9722 9716 9711 9705 9699
10401 10395 10391 10384 10375 10369 10362 10351 10346 10345 10341 10333 10325 10316 10310 10304 10295 10287 10279 10270 10261 10252 10244 10236 10227 10218 10208 10198 10188 10178 10169 10159 10149 10140 10130 10121 10112 10104 10095 10086 10077 10067 10058 10048 10039 10029 10019 10008 9999 9989 9979 9969 9960 9950 9939 9929 9920 9911 9903 9894 9885 9876 9867 9858 9849 9840 9831 9822 9813 9806 9798 9790 9782 9774 9766 9758 9750 9743 9735 9728 9721 9714 9707 9702 9696 9690
10396 10387 10383 10377 10368 10361 10353 10343 10335 10331 10326 10323 10317 10307 10299 10294 10286 10278 10270 10261 10253 10244 10235 10227 10218 10208 10198 10189 10179 10170 10160 10150 10141 10132 10123 10114 10105 10096 10087 10078 10069 10060 10050 10041 10031 10021 10011 10001 9991 9982 9973 9963 9953 9943 9932 9922 9913 9904 9896 9887 9877 9868 9859 9850 9841 9832 9823 9814 9806 9798 9791 9783 9775 9767 9759 9751 9743 9735 9727 9720 9713 9705 9699 9693 9687 9681
10390 10381 10376 10370 10362 10354 10347 10337 10330 10324 10316 10312 10308 10300 10291 10284 10276 10268 10260 10252 10243 10235 10226 10218 10208 10198 10188 10179 10170 10161 10151 10142 10133 10124 10115 10107 10098 10089 10080 10071 10063 10054 10044 10034 10024 10014 10004 9995 9985 9975 9966 9956 9946 9936 9926 9916 9906 9897 9887 9878 9869 9860 9851 9842 9833 9824 9816 9807 9798 9790 9783 9776 9769 9761 9754 9746 9738 9729 9721 9714 9706 9699 9691 9685 9679 9673
10383 10375 10370 10365 10356 10349 10343 10335 10327 10320 10310 10303 10299 10293 10285 10277 10269 10260 10252 10243 10235 10227 10218 10209 10199 10189 10180 10171 10161 10152 10143 10134 10125 10116 10107 10099 10090 10082 10073 10064 10055 10046 10036 10026 10016 10006 9997 9987 9977 9967 9958 9949 9939 9929 9920 9910 9900 9890 9880 9870 9861 9853 9844 9835 9826 9817 9808 9800 9791 9783 9775 9768 9762 9755 9748 9741 9734 9726 9717 9708 9700 9693 9685 9679 9673 9667
10378 10369 10363 10359 10350 10342 10337 10330 10324 10316 10305 10297 10291 10284 10276 10269 10261 10253 10245 10236 10227 10219 10210 10201 10192 10182 10172 10163 10153 10145 10136 10127 10118 10109 10100 10091 10083 10074 10066 10057 10047 10038 10028 10018 10008 9999 9989 9980 9970 9960 9950 9940 9931 9922 9912 9902 9893 9883 9873 9864 9854 9845 9837 9828 9819 9810 9802 9793 9784 9776 9769 9761 9754 9747 9741 9735 9729 9722 9714 9705 9696 9689 9681 9673 9666 9660
10370 10362 10356 10352 10344 10335 10328 10323 10318 10311 10301 10291 10284 10277 10269 10261 10254 10246 10237 10229 10220 10212 10203 10195 10185 10175 10165 10156 10147 10138 10130 10120 10111 10101 10092 10084 10076 10067 10058 10049 10039 10030 10021 10011 10002 9992 9982 9972 9963 9953 9943 9933 9923 9914 9905 9895 9886 9876 9866 9856 9847 9837 9829 9821 9812 9804 9795 9787 9778 9770 9762 9755 9747 9740 9733 9727 9722 9716 9710 9701 9692 9685 9678 9670 9662 9654
10360 10353 10347 10343 10338 10329 10320 10314 10310 10304 10295 10286 10277 10270 10262 10254 10247 10239 10230 10222 10214 10205 10197 10188 10178 10169 10159 10150 10141 10132 10123 10113 10104 10094 10085 10077 10068 10059 10050 10041 10032 10022 10013 10003 9994 9985 9975 9965 9955 9945 9936 9926 9916 9907 9898 9889 9880 9870 9860 9850 9840 9831 9821 9813 9805 9797 9789 9781 9773 9764 9756 9748 9741 9734 9727 9720 9714 9709 9705 9699 9690 9680 9672 9666 9659 9651
10350 10344 10338 10333 10328 10321 10313 10306 10301 10296 10290 10280 10271 10263 10255 10247 10240 10232 10224 10216 10207 10198 10189 10180 10171 10162 10152 10143 10134 10125 10115 10106 10097 10087 10078 10070 10061 10052 10042 10033 10024 10014 10005 9995 9986 9977 9968 9958 9948 9938 9929 9920 9910 9901 9892 9882 9873 9864 9854 9844 9835 9825 9816 9806 9798 9790 9783 9775 9766 9758 9749 9741 9734 9727 9721 9714 9707 9700 9696 9693 9688 9680 9669 9660 9653 9647
10341 10335 10329 10323 10318 10312 10305 10299 10293 10287 10282 10275 10265 10257 10249 10241 10233 10225 10216 10208 10199 10190 10181 10172 10163 10154 10145 10135 10126 10116 10107 10098 10089 10080 10071 10062 10054 10044 10035 10025 10016 10007 9997 9987 9978 9969 9960 9951 9941 9932 9923 9914 9904 9895 9885 9876 9867 9857 9848 9838 9829 9820 9811 9801 9792 9784 9776 9768 9760 9751 9743 9735 9727 9720 9714 9707 9701 9693 9687 9682 9680 9677 9670 9661 9651 9642